星链-2469 (STARLINK-2469 )

导读 | 豆包AI

STARLINK-2469是美国SpaceX公司星链(Starlink)低轨互联网卫星星座的一员,于2021年4月7日发射升空,运行在近地轨道,属于星链第一代组网卫星。它搭载霍尔推进器与高通量通信设备,可自主规避空间碰撞,是星链全球互联网组网的组成部分,为欠发达地区及偏远区域提供高速低延迟宽带服务。截至2026年,该卫星仍在轨参与星链星座运营,支撑星链覆盖全球的卫星互联网服务。

基本信息
目录编号:
48128
目录名称:
STARLINK-2469
国际标识:
2021-027AN
轨道中心:
EARTH
卫星名称:
星链-2469
卫星全名:
星链-2469 (STARLINK-2469 )
卫星状态:
在轨 (已飞行1802 天)
发射日期:
2021-04-07 UTC
国别 :
美国 (US)
星等 :
--
轨道信息
数据来源 国际轨道数据
星历时间: 2026-03-13T17:36:26+0800
1天前
查看轨道信息
半长轴: 6886.45km
偏心率: 0.0001615
轨道倾角: 53.106°
近地点辐角 100.002°
升交点赤经 84.032°
平近点角 260.116°
近地点: 507.2km
远地点: 509.426km
周期: 94.788分钟
每日圈数: 15.191818
详细信息
固有亮度:
5
最大亮度:
2.5
卫星平台:
Starlink V1.0
覆盖范围:
全球
运营商:
太空探索技术公司
运营商所在国:
美国
制造商(研发单位):
太空探索技术公司
制造商所在国:
美国
使用方式:
暂无
卫星简介
星链(Starlink)计划是由太空探索技术公司(SpaceX)提出的一个巨型低轨卫星互联网星座项目,计划在2019年至2024年间在太空搭建由约1.2万颗卫星组成的“星链”网络,其中1584颗将部署在地球上空550千米处的近地轨道,并从2020年开始工作。该卫星仍在工作。
2D轨道图
3D轨道图
轨道高度分析图
轨道倾角分析图
轨道综合分析图
查看轨道综合分析图